This is the latest recevied weather packets stored in our database for station/object DL1SEW-6. If no packets are shown the sender has not sent any weather packets the latest 10 day(s).
| Time | Temp. | Humidity | Pressure | Rain* | Wind** | Luminosity | Snow |
|---|---|---|---|---|---|---|---|
| 1777850710 | 13.33° C | 61% | 1014.1 hPa | 0 mm | - | 0 W/m² | - |
| 1777849809 | 13.33° C | 61% | 1014.2 hPa | 0 mm | - | 0 W/m² | - |
| 1777848892 | 13.33° C | 61% | 1014.2 hPa | 0 mm | - | 0 W/m² | - |
| 1777847992 | 13.33° C | 61% | 1014.3 hPa | 0 mm | - | 0 W/m² | - |
| 1777847092 | 13.33° C | 60% | 1014.3 hPa | 0 mm | - | 0 W/m² | - |
| 1777846192 | 13.33° C | 60% | 1014.3 hPa | 0 mm | - | 0 W/m² | - |
| 1777845291 | 13.33° C | 59% | 1015.4 hPa | 0 mm | - | 0 W/m² | - |
| 1777844391 | 13.89° C | 58% | 1015.5 hPa | 0 mm | - | 0 W/m² | - |
| 1777843491 | 13.89° C | 57% | 1015.3 hPa | 0 mm | - | 0 W/m² | - |
| 1777842593 | 13.89° C | 58% | 1015.2 hPa | 0 mm | - | 0 W/m² | - |
| 1777841691 | 14.44° C | 57% | 1015.1 hPa | 0 mm | - | 0 W/m² | - |
| 1777840790 | 14.44° C | 57% | 1015.1 hPa | 0 mm | - | 0 W/m² | - |
| 1777839891 | 14.44° C | 57% | 1015.1 hPa | 0 mm | - | 0 W/m² | - |
| 1777838990 | 15° C | 57% | 1014.9 hPa | 0 mm | - | 0 W/m² | - |
| 1777838092 | 15° C | 54% | 1014.8 hPa | 0 mm | - | 0 W/m² | - |
| 1777837191 | 15° C | 53% | 1014.6 hPa | 0 mm | - | 0 W/m² | - |
| 1777836290 | 15.56° C | 52% | 1014.5 hPa | 0 mm | - | 0 W/m² | - |
| 1777835390 | 15.56° C | 50% | 1014.3 hPa | 0 mm | - | 0 W/m² | - |
| 1777834489 | 16.11° C | 49% | 1014.2 hPa | 0 mm | - | 0 W/m² | - |
| 1777833589 | 16.67° C | 46% | 1014 hPa | 0 mm | - | 0 W/m² | - |
| 1777832696 | 16.67° C | 45% | 1013.8 hPa | 0 mm | - | 12 W/m² | - |
| 1777831794 | 17.22° C | 43% | 1013.4 hPa | 0 mm | - | 19 W/m² | - |
| 1777830894 | 17.78° C | 43% | 1013.5 hPa | 0 mm | - | 30 W/m² | - |
| 1777829993 | 17.78° C | 42% | 1013.7 hPa | 0 mm | - | 62 W/m² | - |
| 1777829093 | 18.33° C | 42% | 1013.3 hPa | 0 mm | - | 84 W/m² | - |
* Rain latest hour (hover to see other rain measurements)
** Current wind speed in m/s (hover to see current wind gust speed)